When you browse on this site, cookies collect data to enhance your experience and personalize the content and advertising you see.
Visit our Privacy Policy to learn more. By continuing to use the site, you agree to this use of cookies and data.

Stündliche Wetter Canberra

Heute, 16 Juli, Donnerstag

Zeit Temperatur Niederschläge Wind Luftdruck Luftfeuchtigkeit
00:00 +4°C° 0 mm 1 m/S 710 mmHg 91%
01:00 +3°C° 0 mm 1 m/S 710 mmHg 92%
02:00 +3°C° 0 mm 1 m/S 710 mmHg 92%
03:00 +3°C° 0 mm 1 m/S 710 mmHg 92%
04:00 +3°C° 0 mm 1 m/S 710 mmHg 92%
05:00 +3°C° 0 mm 1 m/S 710 mmHg 92%
06:00 +3°C° 0 mm 1 m/S 710 mmHg 92%
07:00 +3°C° 0 mm 1 m/S 710 mmHg 92%
08:00 +4°C° 0 mm 2 m/S 710 mmHg 83%
09:00 +6°C° 0 mm 2 m/S 711 mmHg 74%
10:00 +8°C° 0 mm 3 m/S 711 mmHg 65%
11:00 +9°C° 0 mm 3 m/S 711 mmHg 63%
12:00 +10°C° 0 mm 3 m/S 710 mmHg 62%
13:00 +10°C° 0 mm 3 m/S 710 mmHg 60%
14:00 +10°C° 0 mm 3 m/S 710 mmHg 62%
15:00 +10°C° 0 mm 3 m/S 710 mmHg 64%
16:00 +9°C° 0 mm 3 m/S 710 mmHg 64%
17:00 +8°C° 0 mm 3 m/S 710 mmHg 67%
18:00 +7°C° 0 mm 3 m/S 711 mmHg 70%
19:00 +6°C° 0 mm 2 m/S 711 mmHg 73%
20:00 +6°C° 0 mm 2 m/S 711 mmHg 78%
21:00 +5°C° 0 mm 2 m/S 711 mmHg 83%
22:00 +4°C° 0 mm 2 m/S 711 mmHg 88%
23:00 +3°C° 0 mm 2 m/S 711 mmHg 90%

Morgen, 17 Juli, Freitag

Zeit Temperatur Niederschläge Wind Luftdruck Luftfeuchtigkeit
00:00 +3°C° 0 mm 2 m/S 711 mmHg 91%
01:00 +2°C° 0 mm 2 m/S 711 mmHg 93%
02:00 +2°C° 0 mm 2 m/S 711 mmHg 92%
03:00 +2°C° 0 mm 2 m/S 711 mmHg 92%
04:00 +2°C° 0 mm 2 m/S 711 mmHg 92%
05:00 +2°C° 0 mm 2 m/S 711 mmHg 92%
06:00 +2°C° 0 mm 2 m/S 712 mmHg 92%
07:00 +2°C° 0 mm 1 m/S 712 mmHg 92%
08:00 +4°C° 0 mm 2 m/S 712 mmHg 82%
09:00 +6°C° 0 mm 2 m/S 713 mmHg 73%
10:00 +8°C° 0 mm 2 m/S 713 mmHg 63%
11:00 +11°C° 0 mm 1 m/S 713 mmHg 59%
12:00 +12°C° 0 mm 1 m/S 712 mmHg 54%
13:00 +14°C° 0 mm 1 m/S 712 mmHg 50%
14:00 +13°C° 0 mm 1 m/S 712 mmHg 54%
15:00 +13°C° 0 mm 1 m/S 712 mmHg 58%
16:00 +12°C° 0 mm 1 m/S 712 mmHg 62%
17:00 +9°C° 0 mm 0 m/S 712 mmHg 70%
18:00 +7°C° 0 mm 0 m/S 712 mmHg 78%
19:00 +4°C° 0 mm 0 m/S 712 mmHg 86%
20:00 +4°C° 0 mm 0 m/S 712 mmHg 88%
21:00 +4°C° 0 mm 1 m/S 712 mmHg 89%
22:00 +4°C° 0 mm 1 m/S 713 mmHg 91%
23:00 +4°C° 0 mm 1 m/S 712 mmHg 92%

übermorgen, 18 Juli, Samstag

Zeit Temperatur Niederschläge Wind Luftdruck Luftfeuchtigkeit
00:00 +2°C° 0 mm 0 m/S 712 mmHg 92%
01:00 +2°C° 0 mm 0 m/S 711 mmHg 93%
02:00 +2°C° 0 mm 0 m/S 711 mmHg 94%
03:00 +1°C° 0 mm 0 m/S 711 mmHg 94%
04:00 +1°C° 0 mm 0 m/S 711 mmHg 94%
05:00 +1°C° 0 mm 0 m/S 711 mmHg 94%
06:00 +1°C° 0 mm 0 m/S 711 mmHg 94%
07:00 +1°C° 0 mm 0 m/S 711 mmHg 94%
08:00 +4°C° 0 mm 0 m/S 711 mmHg 87%
09:00 +6°C° 0 mm 0 m/S 712 mmHg 80%
10:00 +10°C° 0 mm 1 m/S 712 mmHg 73%
11:00 +11°C° 0 mm 1 m/S 711 mmHg 69%
12:00 +12°C° 0 mm 2 m/S 710 mmHg 66%
13:00 +12°C° 0 mm 3 m/S 710 mmHg 62%
14:00 +12°C° 0 mm 3 m/S 710 mmHg 66%
15:00 +11°C° 0 mm 3 m/S 709 mmHg 69%
16:00 +11°C° 0 mm 3 m/S 709 mmHg 73%
17:00 +9°C° 0 mm 3 m/S 709 mmHg 79%
18:00 +8°C° 0 mm 3 m/S 709 mmHg 86%
19:00 +6°C° 0 mm 2 m/S 709 mmHg 93%
20:00 +6°C° 0 mm 2 m/S 709 mmHg 93%
21:00 +5°C° 0 mm 2 m/S 709 mmHg 94%
22:00 +5°C° 0 mm 2 m/S 709 mmHg 94%
23:00 +5°C° 0 mm 2 m/S 709 mmHg 94%

19 Juli, Sonntag

Zeit Temperatur Niederschläge Wind Luftdruck Luftfeuchtigkeit
00:00 +5°C° 0 mm 2 m/S 708 mmHg 94%
01:00 +5°C° 0 mm 2 m/S 708 mmHg 94%
02:00 +5°C° 0 mm 2 m/S 708 mmHg 92%
03:00 +6°C° 0 mm 2 m/S 708 mmHg 91%
04:00 +6°C° 0 mm 2 m/S 707 mmHg 90%
05:00 +5°C° 0 mm 2 m/S 708 mmHg 92%
06:00 +5°C° 0 mm 2 m/S 708 mmHg 95%
07:00 +4°C° 0 mm 2 m/S 708 mmHg 97%
08:00 +5°C° 0 mm 3 m/S 708 mmHg 91%
09:00 +7°C° 0 mm 3 m/S 708 mmHg 85%
10:00 +8°C° 0 mm 4 m/S 708 mmHg 78%
11:00 +9°C° 0 mm 5 m/S 707 mmHg 72%
12:00 +10°C° 0 mm 5 m/S 707 mmHg 66%
13:00 +11°C° 0 mm 6 m/S 706 mmHg 59%
14:00 +10°C° 0 mm 6 m/S 706 mmHg 61%
15:00 +10°C° 0 mm 6 m/S 705 mmHg 63%
16:00 +9°C° 0 mm 6 m/S 705 mmHg 64%
17:00 +8°C° 0 mm 6 m/S 705 mmHg 69%
18:00 +7°C° 0 mm 6 m/S 705 mmHg 74%
19:00 +5°C° 0 mm 6 m/S 705 mmHg 79%
20:00 +6°C° 0 mm 7 m/S 705 mmHg 77%
21:00 +6°C° 0 mm 7 m/S 705 mmHg 76%
22:00 +6°C° 0 mm 8 m/S 705 mmHg 75%
23:00 +5°C° 0 mm 8 m/S 706 mmHg 74%

20 Juli, Montag

Zeit Temperatur Niederschläge Wind Luftdruck Luftfeuchtigkeit
00:00 +5°C° 0 mm 7 m/S 706 mmHg 74%
01:00 +4°C° 0 mm 7 m/S 706 mmHg 74%
02:00 +3°C° 0 mm 6 m/S 706 mmHg 74%
03:00 +3°C° 0 mm 6 m/S 706 mmHg 74%
04:00 +2°C° 0 mm 5 m/S 706 mmHg 74%
05:00 +1°C° 0 mm 5 m/S 706 mmHg 77%
06:00 +1°C° 0 mm 4 m/S 707 mmHg 79%
07:00 +1°C° 0 mm 4 m/S 708 mmHg 82%
08:00 +3°C° 0 mm 4 m/S 708 mmHg 74%
09:00 +4°C° 0 mm 4 m/S 709 mmHg 67%
10:00 +6°C° 0 mm 5 m/S 709 mmHg 59%
11:00 +7°C° 0 mm 5 m/S 709 mmHg 56%
12:00 +8°C° 0 mm 6 m/S 709 mmHg 53%
13:00 +8°C° 0 mm 6 m/S 709 mmHg 50%
14:00 +8°C° 0 mm 6 m/S 709 mmHg 53%
15:00 +7°C° 0 mm 5 m/S 709 mmHg 57%
16:00 +7°C° 0 mm 5 m/S 709 mmHg 61%
17:00 +5°C° 0 mm 4 m/S 710 mmHg 68%
18:00 +3°C° 0 mm 3 m/S 710 mmHg 75%
19:00 +3°C° 0 mm 2 m/S 711 mmHg 83%
20:00 +2°C° 0 mm 2 m/S 711 mmHg 86%
21:00 +2°C° 0 mm 2 m/S 711 mmHg 90%
22:00 +2°C° 0 mm 1 m/S 712 mmHg 94%
23:00 +2°C° 0 mm 1 m/S 712 mmHg 94%

21 Juli, Dienstag

Zeit Temperatur Niederschläge Wind Luftdruck Luftfeuchtigkeit
00:00 +2°C° 0 mm 1 m/S 712 mmHg 95%
01:00 +1°C° 0 mm 1 m/S 712 mmHg 96%
02:00 +1°C° 0 mm 1 m/S 712 mmHg 96%
03:00 +1°C° 0 mm 1 m/S 712 mmHg 95%
04:00 +1°C° 0 mm 1 m/S 713 mmHg 95%
05:00 0°C° 0 mm 0 m/S 713 mmHg 94%
06:00 0°C° 0 mm 0 m/S 713 mmHg 94%
07:00 0°C° 0 mm 0 m/S 714 mmHg 93%
08:00 +2°C° 0 mm 0 m/S 714 mmHg 82%
09:00 +4°C° 0 mm 0 m/S 715 mmHg 71%
10:00 +6°C° 0 mm 0 m/S 715 mmHg 60%
11:00 +9°C° 0 mm 1 m/S 715 mmHg 54%
12:00 +10°C° 0 mm 1 m/S 715 mmHg 49%
13:00 +11°C° 0 mm 1 m/S 714 mmHg 44%
14:00 +11°C° 0 mm 1 m/S 714 mmHg 47%
15:00 +11°C° 0 mm 1 m/S 714 mmHg 49%
16:00 +10°C° 0 mm 1 m/S 714 mmHg 52%
17:00 +8°C° 0 mm 1 m/S 714 mmHg 60%
18:00 +6°C° 0 mm 1 m/S 714 mmHg 68%
19:00 +4°C° 0 mm 1 m/S 715 mmHg 76%
20:00 +3°C° 0 mm 1 m/S 715 mmHg 80%
21:00 +2°C° 0 mm 1 m/S 715 mmHg 84%
22:00 +1°C° 0 mm 1 m/S 715 mmHg 88%
23:00 +1°C° 0 mm 1 m/S 715 mmHg 89%
Mehr zeigen